User: anonymous   Login
Location: Nag� el Ma?a??a
(24.0667°N, 32.8833°E)
Time: 10:18:48
(UTC+00:00)
Language:

Cosmos 1743 - Orbit

View from above orbital plane
View from above orbital plane
View from above satellite
View from above satellite

Ground track
Ground track

The orbit data is extracted from the following two-line orbital elements,

1 16719U 86034A   21341.09508310  .00001035  00000-0  51603-4 0  9990
2 16719  82.5520 190.0653 0012535  25.8481  91.1644 15.16361795943179
Epoch (UTC): 07 December 2021 02:16:55
Eccentricity: 0.0012535
inclination: 82.5520°
perigee height: 508 km
apogee height: 525 km
right ascension of ascending node: 190.0653°
argument of perigee: 25.8481°
revolutions per day: 15.16361795
mean anomaly at epoch: 91.1644°
orbit number at epoch: 94317

The dashed part of the orbit path shows where the satellite is in the earth's shadow,  

DLR